Home   Weather   Ulyanovsk   Past weeks

Flag for Russia Past Weather in Ulyanovsk, Russia — Yesterday and Last 2 Weeks

Now
16 °F

Light snow. Overcast.


Feels Like: 1 °F
Forecast: 9 / 18 °F
Wind: 15 mph from Northwest

Location: Ulyanovsk Vostochny Airport

Current Time: Dec 4, 2016 at 10:18:22 am

Latest Report: Dec 4, 2016 at 9:00 am


Visibility: 3 mi

Pressure: 29.83 "Hg

Humidity: 79%

Dew Point: 10 °F

Location of UlyanovskLocation

Past Weather in Ulyanovsk — Graph

°F

Ulyanovsk Temperature Yesterday

Maximum temperature yesterday: 16 °F (at 12:00 am)
Minimum temperature yesterday: 16 °F (at 12:00 am)
Average temperature yesterday: 16 °F

High & Low Weather Summary for the Past Weeks

 TemperatureHumidityPressure
High37 °F (Nov 28, 8:00 pm)100% (Nov 26, 8:00 am)31.16 "Hg (Nov 26, 8:00 am)
Low1 °F (Dec 1, 7:00 pm)29% (Nov 23, 2:00 pm)29.39 "Hg (Nov 28, 6:00 pm)
Average21 °F74%30.17 "Hg
* Reported Nov 19 9:00 am — Dec 4 9:00 am, Ulyanovsk, Weather by CustomWeather, © 2016

Note: Actual official high and low records may vary slightly from our data, if they occured in-between our weather recording intervals... More about our weather records

Advertising

Ulyanovsk Weather History for the Previous 24 Hours

Scroll right to see more
 ConditionsComfort  
Time TempWeatherWind HumidityBarometerVisibility
9:00 am
Sun, Dec 4
16 °FLight snow. Overcast.15 mph79%29.83 "Hg3 mi
8:00 am16 °FLight snow. Overcast.15 mph79%29.80 "Hg3 mi
7:00 am14 °FOvercast.17 mph85%29.77 "Hg3 mi
6:00 am12 °FLow level haze.17 mph85%29.77 "Hg3 mi
5:00 am10 °FLow level haze.17 mph85%29.74 "Hg3 mi
4:00 am9 °FLow level haze.17 mph85%29.74 "Hg3 mi
3:00 am10 °FLow level haze.17 mph85%29.71 "Hg3 mi
2:00 am10 °FLight snow. Low level haze.13 mph85%29.71 "Hg3 mi
1:00 am12 °FLight snow. Low level haze.15 mph85%29.71 "Hg3 mi
12:00 am14 °FLight snow. Overcast.15 mph85%29.68 "Hg3 mi
11:00 pm
Sat, Dec 3
16 °FLight snow. Overcast.17 mph86%29.68 "Hg3 mi
10:00 pm16 °FLight snow. Overcast.10 mph86%29.68 "Hg3 mi
9:00 pm16 °FLight snow. Passing clouds.10 mph79%29.68 "Hg3 mi
8:00 pm16 °FLight snow. Passing clouds.10 mph79%29.68 "Hg3 mi
7:00 pm16 °FLight snow. Passing clouds.8 mph86%29.68 "Hg3 mi
6:00 pm16 °FLight snow. Passing clouds.8 mph86%29.68 "Hg3 mi
5:00 pm16 °FLight snow. Partly sunny.13 mph86%29.68 "Hg2 mi
4:00 pm16 °FLight snow. Partly sunny.15 mph86%29.68 "Hg3 mi
3:00 pm16 °FLight snow. Partly sunny.15 mph86%29.68 "Hg2 mi
2:00 pm16 °FLight snow. Partly sunny.13 mph86%29.68 "Hg2 mi
1:00 pm16 °FLight snow. Partly sunny.10 mph86%29.68 "Hg2 mi
12:00 pm16 °FLight snow. Partly sunny.13 mph86%29.71 "Hg3 mi
11:00 am16 °FLight snow. Overcast.10 mph86%29.74 "Hg3 mi
10:00 am16 °FLight snow. Low clouds.8 mph86%29.74 "Hg2 mi
Weather by CustomWeather, © 2016

See weather overviewHow to use our weather pages